カタログに戻る

TITAN 3C TRANSTAGE DEB

LostHEO
NORAD 28552·DEBRIS·🇺🇸 United States

打ち上げ Dec 21, 1965 から Cape Canaveral Space Force Station

Loading…

次のパス (今後24時間)

TLE

古いSource: Space-Track

元期: Oct 24, 2025, 20:39 UTC

1 28552U 65108BT  25297.86096871  .00001299  00000-0  57578-2 0  9997
2 28552  26.4863  63.8749 6749257 186.8944 154.1641  2.82930130 28651

AllMySatでTITAN 3C TRANSTAGE DEBをリアルタイム追跡

Download on the App Store